STARLINK-1054 (44759 NORAD) Tracking and Keplerian Element Data

This shows tracking and keplerian element data for the satellite.

Feedback or suggestion? Click here.




ElementValue
Catalog44759
NameSTARLINK-1054
Epoch Orbit2180
Epoch Day93.91667824
Epoch Year2020
RAAN233.5435
Inclination53.0176
Eccentricity0.0001484
Argument of Perigee96.6044
Mean Anonmoly340.0466
Mean Motion15.0556705
Decay Rate0.00010019
L11 44759U 19074AY 20093.91667824 .00010019 00000-0 70607-3 0 9991
L22 44759 53.0176 233.5435 0001484 96.6044 340.0466 15.05567050 21802

Live tracking and technical data element details for STARLINK-1054 (NORAD 44759). STARLINK-1054 can be tracked NOW for your location showing map with azimuth and elevation plus other details from your city location.

Track the satellite on the map from your city or location and see movement details for azimuth, elevation, latitude, longitude, range, height, and movement on the map or in text.







IsCatalogInMostPopularTable: catalog: 44759, numindb: 45
Update: records affected: 1



GetName: 44759 STARLINK-1054

Hit Count: updated at: Fri, 03 Apr 2020 23:20:32 GMT